Torna al catalogo

STARLINK-5857

AttivoComunicazioniVLEO
NORAD 55946·PAYLOAD·🇺🇸 United States

Lanciato Mar 17, 2023 da Vandenberg Space Force Base

Loading…

Prossimi Passaggi (prossime 24 ore)

TLE

AggiornatoSource: CelesTrak SupGP

Epoca: Sep 15, 2026, 02:46 UTC

1 55946C 23037AJ  26258.11576389  .00030997  00000+0  25974-2 0  2581
2 55946  70.0015 166.7638 0002997 273.0740 186.7402 14.98319556    11

Traccia STARLINK-5857 in tempo reale con AllMySat

Download on the App Store